﻿ดัชนีวัน,จำนวนการเข้าชมเว็บ
1/1/2017,0
2/1/2017,0
3/1/2017,0
4/1/2017,0
5/1/2017,0
6/1/2017,0
7/1/2017,0
8/1/2017,0
9/1/2017,0
10/1/2017,0
11/1/2017,0
12/1/2017,0
13/1/2017,0
14/1/2017,0
15/1/2017,0
16/1/2017,0
17/1/2017,0
18/1/2017,0
19/1/2017,0
20/1/2017,0
21/1/2017,0
22/1/2017,0
23/1/2017,0
24/1/2017,0
25/1/2017,0
26/1/2017,0
27/1/2017,0
28/1/2017,0
29/1/2017,0
30/1/2017,0
31/1/2017,0
1/2/2017,0
2/2/2017,0
3/2/2017,0
4/2/2017,0
5/2/2017,0
6/2/2017,0
7/2/2017,0
8/2/2017,0
9/2/2017,0
10/2/2017,0
11/2/2017,0
12/2/2017,0
13/2/2017,0
14/2/2017,0
15/2/2017,0
16/2/2017,0
17/2/2017,0
18/2/2017,0
19/2/2017,0
20/2/2017,0
21/2/2017,0
22/2/2017,0
23/2/2017,0
24/2/2017,0
25/2/2017,0
26/2/2017,0
27/2/2017,0
28/2/2017,0
1/3/2017,0
2/3/2017,0
3/3/2017,0
4/3/2017,0
5/3/2017,0
6/3/2017,0
7/3/2017,0
8/3/2017,0
9/3/2017,0
10/3/2017,0
11/3/2017,0
12/3/2017,0
13/3/2017,0
14/3/2017,0
15/3/2017,0
16/3/2017,0
17/3/2017,0
18/3/2017,0
19/3/2017,0
20/3/2017,0
21/3/2017,0
22/3/2017,0
23/3/2017,0
24/3/2017,0
25/3/2017,0
26/3/2017,0
27/3/2017,0
28/3/2017,0
29/3/2017,0
30/3/2017,0
31/3/2017,0
1/4/2017,0
2/4/2017,0
3/4/2017,0
4/4/2017,0
5/4/2017,0
6/4/2017,0
7/4/2017,0
8/4/2017,0
9/4/2017,0
10/4/2017,0
11/4/2017,0
12/4/2017,0
13/4/2017,0
14/4/2017,0
15/4/2017,0
16/4/2017,0
17/4/2017,0
18/4/2017,0
19/4/2017,0
20/4/2017,0
21/4/2017,0
22/4/2017,0
23/4/2017,0
24/4/2017,0
25/4/2017,0
26/4/2017,0
27/4/2017,0
28/4/2017,0
29/4/2017,0
30/4/2017,0
1/5/2017,0
2/5/2017,0
3/5/2017,0
4/5/2017,0
5/5/2017,0
6/5/2017,0
7/5/2017,0
8/5/2017,0
9/5/2017,0
10/5/2017,0
11/5/2017,0
12/5/2017,0
13/5/2017,0
14/5/2017,5926
15/5/2017,96601
16/5/2017,82300
17/5/2017,89249
18/5/2017,71674
19/5/2017,74099
20/5/2017,18029
21/5/2017,15572
22/5/2017,99987
23/5/2017,92892
24/5/2017,73480
25/5/2017,67502
26/5/2017,59899
27/5/2017,10551
28/5/2017,9968
29/5/2017,86417
30/5/2017,74207
31/5/2017,64226
1/6/2017,67598
2/6/2017,74302
3/6/2017,16787
4/6/2017,12269
5/6/2017,87574
6/6/2017,75131
7/6/2017,68700
8/6/2017,63386
9/6/2017,56000
10/6/2017,11147
11/6/2017,11503
12/6/2017,69027
13/6/2017,72155
14/6/2017,81342
15/6/2017,83035
16/6/2017,70523
17/6/2017,27144
18/6/2017,28781
19/6/2017,72947
20/6/2017,73247
21/6/2017,63472
22/6/2017,68466
23/6/2017,62658
24/6/2017,13899
25/6/2017,13878
26/6/2017,87229
27/6/2017,74141
28/6/2017,70452
29/6/2017,58476
30/6/2017,67967
1/7/2017,9777
2/7/2017,8904
3/7/2017,92351
4/7/2017,69698
5/7/2017,68164
6/7/2017,63636
7/7/2017,57668
8/7/2017,7305
9/7/2017,7965
10/7/2017,10742
11/7/2017,79695
12/7/2017,73885
13/7/2017,68781
14/7/2017,60329
15/7/2017,8347
16/7/2017,7442
17/7/2017,67354
18/7/2017,66072
19/7/2017,63057
20/7/2017,58541
21/7/2017,62250
22/7/2017,11359
23/7/2017,11139
24/7/2017,93868
25/7/2017,79111
26/7/2017,65532
27/7/2017,76677
28/7/2017,12805
29/7/2017,10529
30/7/2017,10181
31/7/2017,79957
1/8/2017,76762
2/8/2017,85702
3/8/2017,72271
4/8/2017,67457
5/8/2017,13466
6/8/2017,13434
7/8/2017,69688
8/8/2017,77483
9/8/2017,72111
10/8/2017,66201
11/8/2017,59315
12/8/2017,8944
13/8/2017,8768
14/8/2017,13309
15/8/2017,76640
16/8/2017,77567
17/8/2017,69961
18/8/2017,70499
19/8/2017,12492
20/8/2017,12880
21/8/2017,98554
22/8/2017,79435
23/8/2017,71491
24/8/2017,58939
25/8/2017,63736
26/8/2017,15239
27/8/2017,14108
28/8/2017,80044
29/8/2017,69338
30/8/2017,71745
31/8/2017,74333
1/9/2017,64621
2/9/2017,12958
3/9/2017,15768
4/9/2017,91969
5/9/2017,73480
6/9/2017,74651
7/9/2017,68666
8/9/2017,63568
9/9/2017,14347
10/9/2017,14949
11/9/2017,93656
12/9/2017,77414
13/9/2017,80233
14/9/2017,67898
15/9/2017,62276
16/9/2017,14231
17/9/2017,14240
18/9/2017,70451
19/9/2017,66399
20/9/2017,60622
21/9/2017,62771
22/9/2017,57066
23/9/2017,12146
24/9/2017,13429
25/9/2017,70905
26/9/2017,78395
27/9/2017,67650
28/9/2017,61314
29/9/2017,63447
30/9/2017,11797
1/10/2017,10641
2/10/2017,81505
3/10/2017,80088
4/10/2017,77177
5/10/2017,72045
6/10/2017,60624
7/10/2017,12149
8/10/2017,13242
9/10/2017,84221
10/10/2017,65498
11/10/2017,30309
12/10/2017,26896
13/10/2017,12091
14/10/2017,10139
15/10/2017,10543
16/10/2017,31812
17/10/2017,29928
18/10/2017,27971
19/10/2017,28105
20/10/2017,24413
21/10/2017,11708
22/10/2017,8668
23/10/2017,12090
24/10/2017,29192
25/10/2017,26428
26/10/2017,7852
27/10/2017,21207
28/10/2017,10754
29/10/2017,10161
30/10/2017,33329
31/10/2017,28280
1/11/2017,26934
2/11/2017,27227
3/11/2017,22187
4/11/2017,9913
5/11/2017,10869
6/11/2017,27374
7/11/2017,29466
8/11/2017,29315
9/11/2017,27185
10/11/2017,27349
11/11/2017,10573
12/11/2017,11755
13/11/2017,45488
14/11/2017,45473
15/11/2017,38233
16/11/2017,29199
17/11/2017,26754
18/11/2017,12279
19/11/2017,11308
20/11/2017,30277
21/11/2017,29825
22/11/2017,30224
23/11/2017,30845
24/11/2017,25541
25/11/2017,11328
26/11/2017,12758
27/11/2017,32082
28/11/2017,29312
29/11/2017,26846
30/11/2017,28198
1/12/2017,22911
2/12/2017,10074
3/12/2017,10111
4/12/2017,24859
5/12/2017,11663
6/12/2017,29389
7/12/2017,26615
8/12/2017,24466
9/12/2017,9362
10/12/2017,9154
11/12/2017,11639
12/12/2017,27793
13/12/2017,27903
14/12/2017,27472
15/12/2017,29467
16/12/2017,11615
17/12/2017,12650
18/12/2017,33533
19/12/2017,29393
20/12/2017,28846
21/12/2017,26899
22/12/2017,25422
23/12/2017,10039
24/12/2017,11807
25/12/2017,29766
26/12/2017,28881
27/12/2017,23385
28/12/2017,19667
29/12/2017,15042
30/12/2017,6748
31/12/2017,5217
